Kicking Horse, Canada 16 day weather forecast

Slopes altitude range 1190 m - 2445m

Number of lifts: 5 Pistes: 70km

In some cases the lift and piste totals shown are for the ski domain (e.g. Three Valleys) rather than individual resort (e.g. Courchevel)

Overview

The 16 day weather forecast is fully updated 4 times every day.

    • Wed 19 DEC 2018
    • Wed 19
    • -6C -5C
    • Thu 20 DEC 2018
    • Thu 20
    • -9C -7C
    • Fri 21 DEC 2018
    • Fri 21
    • -9C -5C
    • Sat 22 DEC 2018
    • Sat 22
    • -18C -16C
    • Sun 23 DEC 2018
    • Sun 23
    • -15C -13C
    • Mon 24 DEC 2018
    • Mon 24
    • -9C -8C
    • Tue 25 DEC 2018
    • Tue 25
    • -15C -13C
    • Wed 26 DEC 2018
    • Wed 26
    • -20C -19C
    • Thu 27 DEC 2018
    • Thu 27
    • -22C -19C
    • Fri 28 DEC 2018
    • Fri 28
    • -24C -23C
    • Sat 29 DEC 2018
    • Sat 29
    • -15C -10C
    • Sun 30 DEC 2018
    • Sun 30
    • -10C -9C
    • Mon 31 DEC 2018
    • Mon 31
    • -19C -13C
    • Tue 01 JAN 2019
    • Tue 01
    • -18C -12C
    • Wed 02 JAN 2019
    • Wed 02
    • -11C -9C
    • Thu 03 JAN 2019
    • Thu 03
    • -14C -9C

Date:

Time Type 0°C level Temp Chill Snow Cloud Speed Gust Dir Press
3:00 1152m -3°C -3_4 1cm 95% 4mph 6mph 1003mB
6:00 822m -5°C -5_4 1cm 82% 4mph 6mph 1006mB
9:00 550m -6°C -6_3 0cm 56% 3mph 4mph 1010mB
12:00 709m -5°C -5_3 0cm 66% 3mph 4mph 1013mB
15:00 834m -4°C -4_4 1cm 93% 4mph 5mph 1017mB
18:00 905m -4°C -4_5 1cm 70% 5mph 8mph 1019mB
21:00 1051m -4°C -4_5 1cm 92% 5mph 7mph 1018mB
0:00 544m -6°C -6_4 1cm 84% 4mph 5mph 1021mB
3:00 262m -8°C -8_4 0cm 50% 4mph 5mph 1022mB
6:00 178m -9°C -9_5 0cm 35% 5mph 6mph 1022mB
9:00 364m -9°C -9_6 1cm 52% 6mph 6mph 1020mB
12:00 457m -7°C -7_6 1cm 73% 6mph 9mph 1016mB
15:00 445m -7°C -7_7 1cm 99% 7mph 10mph 1011mB
18:00 713m -5°C -5_7 2cm 98% 7mph 13mph 1004mB
21:00 1037m -5°C -5_7 1cm 95% 7mph 11mph 998mB
0:00 1523m -5°C -5_7 2cm 94% 7mph 13mph 993mB
3:00 999m -4°C -4_7 3cm 80% 7mph 15mph 992mB
6:00 737m -5°C -5_7 3cm 87% 7mph 12mph 997mB
9:00 429m -7°C -7_7 1cm 96% 7mph 10mph 1002mB
12:00 208m -5°C -5_8 1cm 91% 8mph 13mph 1009mB
15:00 0m -9°C -9_5 0cm 40% 5mph 6mph 1017mB
18:00 0m -9°C -9_4 0cm 43% 4mph 6mph 1022mB
21:00 0m -14°C -14_4 0cm 48% 4mph 7mph 1022mB
0:00 0m -14°C -14_2 0cm 58% 2mph 2mph 1027mB
3:00 0m -16°C -16_2 0cm 74% 2mph 2mph 1029mB
6:00 0m -16°C -16_3 0cm 71% 3mph 4mph 1031mB
9:00 0m -17°C -17_4 0cm 30% 4mph 5mph 1031mB
12:00 0m -16°C -16_4 0cm 19% 4mph 5mph 1031mB
15:00 0m -18°C -18_4 0cm 34% 4mph 5mph 1031mB
18:00 0m -14°C -14_4 0cm 39% 4mph 4mph 1029mB
21:00 11m -14°C -14_2 0cm 86% 2mph 3mph 1025mB
0:00 0m -14°C -14_4 0cm 66% 4mph 4mph 1026mB
3:00 0m -14°C -14_4 0cm 75% 4mph 5mph 1027mB
6:00 0m -14°C -14_4 0cm 82% 4mph 5mph 1026mB
9:00 0m -15°C -15_5 0cm 86% 5mph 6mph 1024mB
12:00 0m -13°C -13_6 0cm 90% 6mph 6mph 1021mB
15:00 0m -12°C -12_5 1cm 98% 5mph 5mph 1017mB
18:00 7m -10°C -10_5 1cm 88% 5mph 6mph 1014mB
21:00 509m -10°C -10_4 1cm 78% 4mph 6mph 1010mB
0:00 426m -10°C -10_3 1cm 76% 3mph 4mph 1011mB
3:00 213m -9°C -9_3 0cm 72% 3mph 4mph 1012mB
6:00 269m -9°C -9_4 0cm 74% 4mph 4mph 1013mB
9:00 189m -9°C -9_4 0cm 67% 4mph 4mph 1013mB
12:00 190m -8°C -8_4 0cm 60% 4mph 4mph 1014mB
15:00 97m -9°C -9_4 0cm 49% 4mph 5mph 1013mB
18:00 441m -7°C -7_3 0cm 59% 3mph 4mph 1013mB
21:00 787m -7°C -7_2 0cm 13% 2mph 4mph 1010mB
0:00 40m -10°C -10_3 0cm 11% 3mph 4mph 1012mB
3:00 0m -12°C -12_4 0cm 1% 4mph 5mph 1014mB
6:00 0m -13°C -13_4 0cm 1% 4mph 5mph 1016mB
9:00 0m -14°C -14_4 0cm 1% 4mph 5mph 1018mB
12:00 0m -13°C -13_4 0cm 1% 4mph 5mph 1020mB
15:00 0m -15°C -15_4 0cm 0% 4mph 4mph 1021mB
18:00 0m -11°C -11_4 0cm 0% 4mph 4mph 1020mB
21:00 376m -11°C -11_2 0cm 2% 2mph 3mph 1017mB
0:00 0m -12°C -12_3 0cm 20% 3mph 3mph 1019mB
3:00 0m -14°C -14_4 0cm 68% 4mph 4mph 1020mB
6:00 0m -15°C -15_4 0cm 44% 4mph 4mph 1020mB
9:00 0m -20°C -20_2 0cm 70% 2mph 3mph 1020mB
12:00 0m -19°C -19_2 0cm 77% 2mph 2mph 1021mB
15:00 0m -19°C -19_1 0cm 88% 1mph 2mph 1021mB
18:00 0m -15°C -15_1 0cm 89% 1mph 1mph 1021mB
21:00 202m -15°C -15_2 1cm 99% 2mph 2mph 1019mB
0:00 0m -15°C -15_3 1cm 100% 3mph 4mph 1022mB
3:00 0m -16°C -16_7 1cm 99% 7mph 7mph 1025mB
6:00 0m -18°C -18_7 1cm 99% 7mph 8mph 1028mB
9:00 0m -20°C -20_7 1cm 92% 7mph 8mph 1030mB
12:00 0m -19°C -19_6 0cm 87% 6mph 7mph 1033mB
15:00 0m -22°C -22_6 0cm 13% 6mph 7mph 1036mB
18:00 0m -19°C -19_4 0cm 6% 4mph 5mph 1035mB
21:00 0m -18°C -18_3 0cm 0% 3mph 3mph 1032mB
0:00 0m -22°C -22_1 0cm 0% 1mph 2mph 1034mB
3:00 0m -23°C -23_2 0cm 0% 2mph 2mph 1036mB
6:00 0m -24°C -24_2 0cm 0% 2mph 2mph 1036mB
9:00 0m -24°C -24_2 0cm 0% 2mph 2mph 1035mB
12:00 0m -23°C -23_3 0cm 13% 3mph 3mph 1034mB
15:00 0m -22°C -22_3 0cm 61% 3mph 4mph 1033mB
18:00 0m -16°C -16_4 0cm 75% 4mph 4mph 1029mB
Morning 0.15625mm 0 11m -15°C -15_5 1cm 100% 5mph 7mph 1025mB
Afternoon 0.385417mm 0 527m -10°C -10_6 3cm 97% 6mph 7mph 1020mB
Morning 0.333333mm 0 546m -11°C -11_7 3cm 94% 7mph 9mph 1016mB
Afternoon 0.015625mm 0 812m -9°C -9_7 1cm 96% 7mph 9mph 1017mB
Morning 0.0260417mm 0 148m -13°C -13_6 1cm 93% 6mph 6mph 1023mB
Afternoon 0.229167mm 0 26m -13°C -13_4 0cm 63% 4mph 6mph 1024mB
Morning 0.0572917mm 0 0m -18°C -18_7 0cm 75% 7mph 8mph 1017mB
Afternoon 0.00520833mm 0 285m -12°C -12_13 0cm 73% 13mph 21mph 1004mB
Morning 0mm 0 623m -12°C -12_10 0cm 100% 10mph 15mph 1008mB
Afternoon 0mm 0 610m -9°C -9_13 0cm 99% 13mph 18mph 1006mB
Morning 0mm 0 773m -10°C -10_10 0cm 100% 10mph 14mph 1006mB
Afternoon 0.00520833mm 0 193m -9°C -9_4 1cm 96% 4mph 5mph 1011mB

16 day outlook at a glance

Forecast issued: 19/12/2018 03:36:22

Chat

Your comments and questions. In a resort? Let us know what it's like!


Characters left 250

For terms and conditions see Readers Comments on the Cookie and privacy policy page.